Regional Weather Roundup
Issued by NWS

Home | Current Version | Previous Version | Graphics & Text | Print | Product List | Glossary On
Versions: 1 2 3 4 5 6 7 8 9 10 11 12 13 14 15 16 17 18 19 20 21 22 23 24 25 26 27
000
ASUS45 KCYS 170010
RWRWY

WYOMING REGIONAL WEATHER ROUNDUP
NATIONAL WEATHER SERVICE CHEYENNE WY
500 PM MST MON JAN 16 2017

NOTE:  "FAIR" INDICATES FEW OR NO CLOUDS BELOW 12,000 FEET
WITH NO SIGNIFICANT WEATHER AND/OR OBSTRUCTIONS TO VISIBILITY.

WYZ001-170100-
YELLOWSTONE NATIONAL PARK

CITY           SKY/WX    TMP DP  RH WIND       PRES   REMARKS
LK YELLOWSTONE   N/A      1  -2  87 CALM      30.16S
6HR MIN TEMP:  -6; 6HR MAX TEMP:  11;

W YELLOWSTONE  NOT AVBL

$$
WYZ002>013-054>058-071-098>099-170100-
NORTHERN WYOMING

CITY           SKY/WX    TMP DP  RH WIND       PRES   REMARKS
JACKSON        CLEAR      7   1  78 CALM      30.20F
CODY           FAIR      17   8  67 S3        30.09S
GREYBULL       FAIR      -2  -9  72 NW6       30.16S WCI -14
6HR MIN TEMP:  -6; 6HR MAX TEMP:   2; 6HR PCP: TRACE;

WORLAND        FAIR       6   1  80 NE3       30.13S
6HR MIN TEMP:  -1; 6HR MAX TEMP:  14; 6HR PCP: TRACE;

SHERIDAN       FAIR      17   7  64 SW9       30.09S WCI   6
6HR MIN TEMP:  17; 6HR MAX TEMP:  34;

BUFFALO        FAIR      28   9  44 CALM      30.10R
6HR MIN TEMP:  27; 6HR MAX TEMP:  35;

GILLETTE       FAIR      21  12  68 SW7       30.10R WCI  12
6HR MIN TEMP:  21; 6HR MAX TEMP:  32;

HULETT         FAIR      32  12  43 MISG      30.11R
NEWCASTLE      FAIR      27  12  54 N13       30.10R WCI  16

$$
WYZ014>020-022>026-101>103-170100-
CENTRAL WYOMING

CITY           SKY/WX    TMP DP  RH WIND       PRES   REMARKS
BIG PINEY      FAIR      -3  -8  79 CALM      30.15R
6HR MIN TEMP: -11; 6HR MAX TEMP:   2;

PINEDALE       FAIR       3  -4  72 SE3       30.15R
DUBOIS         NOT AVBL
LANDER         FAIR      14   6  70 N6        30.10R WCI   5
6HR MIN TEMP:   9; 6HR MAX TEMP:  18;

RIVERTON       FAIR       6   0  76 N5        30.13R WCI  -3
6HR MIN TEMP:   6; 6HR MAX TEMP:  11;

CASPER         FAIR      26   9  48 SW7       30.10S WCI  18
6HR MIN TEMP:  25; 6HR MAX TEMP:  33;

DOUGLAS        FAIR      28  12  51 W6        30.11R WCI  22
6HR MIN TEMP:  28; 6HR MAX TEMP:  39;


$$
WYZ021-027>030-104>119-170100-
SOUTHERN WYOMING

CITY           SKY/WX    TMP DP  RH WIND       PRES   REMARKS
EVANSTON       FAIR      10   5  80 CALM      30.16R
6HR MIN TEMP:   3; 6HR MAX TEMP:  11;

ROCK SPRINGS   FAIR       2  -2  83 SW3       30.16R
6HR MIN TEMP:  -2; 6HR MAX TEMP:   6;

RAWLINS        FAIR      10   3  73 W5        30.13R WCI   2
6HR MIN TEMP:  10; 6HR MAX TEMP:  20;

LARAMIE        FAIR      21  12  68 CALM      30.08R
6HR MIN TEMP:  19; 6HR MAX TEMP:  25;

CHEYENNE       FAIR      34  11  38 N6        30.07R WCI  29
6HR MIN TEMP:  33; 6HR MAX TEMP:  37;

TORRINGTON     FAIR      38  13  35 NW7       30.08R WCI  33
6HR MIN TEMP:  36; 6HR MAX TEMP:  43;


$$




USA.gov is the U.S. government's official web portal to all federal, state and local government web resources and services.